OE5MIL-13 Weather Reports


time (UTC)temp
F
wind
direction
speed
knots
gust
knots
rain 1hr
in
rain 24hr
in
rain mn
in
humidity
%
barometer
mb
20260509124841 47 312 2.6 2.6 0.00 0.00 0.00 100
20260509122840 47 348 3.5 3.5 0.00 0.00 0.00 100
20260509120839 52 0 0.0 2.6 0.00 0.00 0.00 100
20260509114838 49 9 1.7 4.3 0.00 0.00 0.00 100
20260509112837 52 45 3.5 5.2 0.00 0.00 0.00 100
20260509110836 49 142 4.3 8.7 0.00 0.00 0.00 100
20260509104834 48 35 2.6 5.2 0.00 0.00 0.00 100
20260509102833 42 80 0.0 0.9 0.00 0.00 0.00 100
20260509100832 42 208 1.7 2.6 0.00 0.00 0.00 100
20260509094831 41 298 0.9 2.6 0.00 0.00 0.00 100
20260509092830 42 338 2.6 4.3 0.00 0.00 0.00 100
20260509090829 43 303 2.6 5.2 0.00 0.00 0.00 100
20260509084827 43 299 2.6 3.5 0.00 0.00 0.00 100
20260509082826 44 310 1.7 7.0 0.00 0.00 0.00 100
20260509080825 46 309 5.2 7.0 0.00 0.00 0.00 100
20260509074824 44 352 0.0 6.1 0.00 0.00 0.00 100
20260509072823 42 333 0.0 3.5 0.00 0.00 0.00 100
20260509070822 42 22 3.5 5.2 0.00 0.00 0.00 100
20260509064821 42 300 0.9 3.5 0.00 0.00 0.00 100
20260509062819 41 352 3.5 4.3 0.00 0.00 0.00 100
20260509060818 39 279 0.0 0.0 0.00 0.00 0.00 100
20260509054817 39 279 0.0 0.0 0.00 0.00 0.00 100
20260509052816 38 279 0.0 0.0 0.00 0.00 0.00 100
20260509050815 37 279 0.0 0.0 0.00 0.00 0.00 100
20260509044814 36 330 0.0 1.7 0.00 0.00 0.00 100
20260509042813 34 144 0.0 0.0 0.00 0.00 0.00 100
20260509040811 32 144 0.0 0.0 0.00 0.00 0.00 100
20260509034810 33 144 0.0 0.0 0.00 0.00 0.00 100
20260509032810 34 112 2.6 3.5 0.00 0.00 0.00 100
20260509030808 34 157 2.6 3.5 0.00 0.00 0.00 100
20260509024807 34 163 2.6 4.3 0.00 0.00 0.00 100
20260509022806 34 142 3.5 3.5 0.00 0.00 0.00 100
20260509020805 33 104 1.7 3.5 0.00 0.00 0.00 100
20260509014803 34 92 0.0 0.0 0.00 0.00 0.00 100
20260509012802 33 92 0.0 0.0 0.00 0.00 0.00 100
20260509010801 33 92 0.0 0.0 0.00 0.00 0.00 100
20260509004800 33 92 0.0 0.0 0.00 0.00 0.00 100
20260509002759 34 92 0.0 0.0 0.00 0.00 0.00 100
20260509000758 35 92 0.0 0.0 0.00 0.00 0.00 100
20260508234756 35 92 0.0 1.7 0.00 0.00 0.00 100
20260508232756 35 74 0.0 0.0 0.00 0.00 0.00 100
20260508230754 36 74 0.0 0.0 0.00 0.00 0.00 100
20260508222752 35 74 0.0 0.0 0.00 0.00 0.00 100
20260508220751 35 74 0.0 0.0 0.00 0.00 0.00 100
20260508214750 36 92 0.0 0.9 0.00 0.00 0.00 100
20260508212748 37 189 0.9 2.6 0.00 0.00 0.00 100
20260508210747 36 147 1.7 3.5 0.00 0.00 0.00 100
20260508204746 38 137 1.7 2.6 0.00 0.00 0.00 100
20260508202745 38 95 2.6 2.6 0.00 0.00 0.00 100
20260508200744 38 111 0.0 0.0 0.00 0.00 0.00 100
20260508194743 39 111 0.0 0.0 0.00 0.00 0.00 100
20260508192742 39 163 0.0 4.3 0.00 0.00 0.00 100
20260508190740 39 174 2.6 4.3 0.00 0.00 0.00 100
20260508184739 39 39 2.6 3.5 0.00 0.00 0.00 100
20260508182738 41 87 0.9 0.9 0.00 0.00 0.00 100
20260508180737 42 345 0.0 0.0 0.00 0.00 0.00 100
20260508174736 43 345 0.0 0.0 0.00 0.00 0.00 100
20260508172735 44 345 0.0 0.0 0.00 0.00 0.00 100
20260508170734 44 345 0.0 0.0 0.00 0.00 0.00 100
20260508164732 45 345 0.0 0.9 0.00 0.00 0.00 100
20260508162731 48 56 0.0 1.7 0.00 0.00 0.00 100
20260508160730 47 112 0.0 0.0 0.00 0.00 0.00 100
20260508154729 45 167 1.7 2.6 0.00 0.00 0.00 100
20260508152728 43 203 0.9 2.6 0.00 0.00 0.00 100
20260508150727 44 292 1.7 6.1 0.00 0.00 0.00 100
20260508144726 47 174 0.0 0.0 0.00 0.00 0.00 100
20260508142724 48 119 0.0 0.9 0.00 0.00 0.00 100
20260508140723 48 0 0.0 1.7 0.00 0.00 0.00 100
20260508134722 46 209 0.0 1.7 0.00 0.00 0.00 100
20260508132721 45 262 0.0 0.0 0.00 0.00 0.00 100
20260508130720 47 341 0.0 4.3 0.00 0.00 0.00 100